• In Hungary
  • List of Countries
  • For 7 days
  • Water Temperature
  • Satellite Maps
  • Weather Map
  • News
  • Weather Widgets
  • user-avatar
    Login

    Hourly Weather Svoboda

    Today, 17 July, Tuesday

    Time Temperature Precipitation Wind Pressure Humidity
    00:00 +16°C° 0 mm 2 mps 729 mmHg 93%
    01:00 +15°C° 0 mm 1 mps 729 mmHg 94%
    02:00 +15°C° 0 mm 1 mps 729 mmHg 94%
    03:00 +14°C° 0 mm 1 mps 729 mmHg 95%
    04:00 +14°C° 0 mm 1 mps 729 mmHg 95%
    05:00 +16°C° 0 mm 1 mps 729 mmHg 90%
    06:00 +19°C° 0 mm 1 mps 729 mmHg 84%
    07:00 +19°C° 0 mm 2 mps 729 mmHg 79%
    08:00 +21°C° 0 mm 2 mps 729 mmHg 72%
    09:00 +24°C° 0 mm 2 mps 729 mmHg 65%
    10:00 +25°C° 0 mm 3 mps 729 mmHg 58%
    11:00 +26°C° 0 mm 3 mps 729 mmHg 55%
    12:00 +27°C° 0 mm 3 mps 729 mmHg 52%
    13:00 +28°C° 0 mm 3 mps 729 mmHg 50%
    14:00 +27°C° 0 mm 3 mps 728 mmHg 51%
    15:00 +27°C° 0 mm 3 mps 728 mmHg 53%
    16:00 +27°C° 0 mm 3 mps 728 mmHg 55%
    17:00 +26°C° 0 mm 3 mps 728 mmHg 61%
    18:00 +25°C° 0 mm 3 mps 728 mmHg 67%
    19:00 +24°C° 0 mm 3 mps 727 mmHg 74%
    20:00 +21°C° 0 mm 2 mps 727 mmHg 78%
    21:00 +20°C° 0 mm 2 mps 727 mmHg 83%
    22:00 +18°C° 0 mm 2 mps 727 mmHg 87%
    23:00 +18°C° 0 mm 2 mps 727 mmHg 87%

    Tomorrow, 18 July, Wednesday

    Time Temperature Precipitation Wind Pressure Humidity
    00:00 +18°C° 0 mm 2 mps 727 mmHg 86%
    01:00 +18°C° 0 mm 2 mps 727 mmHg 85%
    02:00 +18°C° 0.4 mm 2 mps 727 mmHg 86%
    03:00 +18°C° 0.4 mm 2 mps 727 mmHg 86%
    04:00 +18°C° 0.4 mm 3 mps 727 mmHg 87%
    05:00 +18°C° 0.3 mm 3 mps 727 mmHg 88%
    06:00 +18°C° 0.3 mm 3 mps 727 mmHg 89%
    07:00 +18°C° 0.3 mm 3 mps 727 mmHg 91%
    08:00 +19°C° 0.1 mm 3 mps 727 mmHg 87%
    09:00 +19°C° 0.1 mm 3 mps 727 mmHg 84%
    10:00 +20°C° 0.1 mm 3 mps 727 mmHg 80%
    11:00 +20°C° 0.2 mm 3 mps 727 mmHg 82%
    12:00 +19°C° 0.2 mm 3 mps 727 mmHg 84%
    13:00 +19°C° 0.2 mm 3 mps 727 mmHg 85%
    14:00 +19°C° 0.9 mm 3 mps 727 mmHg 87%
    15:00 +19°C° 0.9 mm 3 mps 727 mmHg 89%
    16:00 +19°C° 0.9 mm 3 mps 727 mmHg 91%
    17:00 +19°C° 1.5 mm 3 mps 727 mmHg 92%
    18:00 +18°C° 1.5 mm 3 mps 727 mmHg 94%
    19:00 +18°C° 1.5 mm 3 mps 727 mmHg 95%
    20:00 +18°C° 0.6 mm 3 mps 727 mmHg 95%
    21:00 +18°C° 0.6 mm 3 mps 727 mmHg 94%
    22:00 +18°C° 0.6 mm 3 mps 727 mmHg 94%
    23:00 +18°C° 1.4 mm 3 mps 727 mmHg 95%

    Day after tomorrow, 19 July, Thursday

    Time Temperature Precipitation Wind Pressure Humidity
    00:00 +18°C° 1.4 mm 3 mps 727 mmHg 95%
    01:00 +18°C° 1.4 mm 3 mps 726 mmHg 96%
    02:00 +18°C° 1.3 mm 3 mps 726 mmHg 96%
    03:00 +18°C° 1.3 mm 3 mps 726 mmHg 96%
    04:00 +17°C° 1.3 mm 2 mps 726 mmHg 97%
    05:00 +18°C° 0.4 mm 2 mps 726 mmHg 96%
    06:00 +18°C° 0.4 mm 2 mps 727 mmHg 96%
    07:00 +18°C° 0.4 mm 2 mps 727 mmHg 95%
    08:00 +19°C° 0.2 mm 3 mps 727 mmHg 91%
    09:00 +20°C° 0.2 mm 3 mps 727 mmHg 88%
    10:00 +21°C° 0.2 mm 3 mps 727 mmHg 84%
    11:00 +22°C° 0.4 mm 3 mps 727 mmHg 81%
    12:00 +24°C° 0.4 mm 3 mps 727 mmHg 78%
    13:00 +24°C° 0.4 mm 3 mps 727 mmHg 75%
    14:00 +25°C° 0.7 mm 3 mps 727 mmHg 74%
    15:00 +25°C° 0.7 mm 2 mps 727 mmHg 74%
    16:00 +25°C° 0.7 mm 2 mps 727 mmHg 73%
    17:00 +24°C° 0.6 mm 2 mps 727 mmHg 78%
    18:00 +24°C° 0.6 mm 1 mps 727 mmHg 83%
    19:00 +23°C° 0.6 mm 1 mps 727 mmHg 88%
    20:00 +22°C° 0.2 mm 1 mps 727 mmHg 90%
    21:00 +20°C° 0.2 mm 1 mps 727 mmHg 93%
    22:00 +18°C° 0.2 mm 2 mps 727 mmHg 95%
    23:00 +18°C° 0.2 mm 2 mps 727 mmHg 95%

    20 July, Friday

    Time Temperature Precipitation Wind Pressure Humidity
    00:00 +19°C° 0.2 mm 1 mps 727 mmHg 95%
    01:00 +18°C° 0.2 mm 1 mps 727 mmHg 96%
    02:00 +18°C° 0.1 mm 1 mps 727 mmHg 96%
    03:00 +18°C° 0.1 mm 1 mps 727 mmHg 96%
    04:00 +17°C° 0.1 mm 2 mps 727 mmHg 96%
    05:00 +17°C° 0 mm 2 mps 728 mmHg 94%
    06:00 +18°C° 0 mm 2 mps 728 mmHg 92%
    07:00 +19°C° 0 mm 2 mps 728 mmHg 91%
    08:00 +20°C° 0 mm 2 mps 728 mmHg 83%
    09:00 +22°C° 0 mm 3 mps 728 mmHg 75%
    10:00 +24°C° 0 mm 3 mps 728 mmHg 67%
    11:00 +25°C° 0.3 mm 3 mps 728 mmHg 66%
    12:00 +26°C° 0.3 mm 3 mps 728 mmHg 66%
    13:00 +26°C° 0.3 mm 3 mps 729 mmHg 65%
    14:00 +26°C° 1.1 mm 3 mps 728 mmHg 71%
    15:00 +25°C° 1.1 mm 4 mps 728 mmHg 78%
    16:00 +23°C° 1.1 mm 4 mps 728 mmHg 84%
    17:00 +22°C° 0.6 mm 4 mps 729 mmHg 86%
    18:00 +22°C° 0.6 mm 3 mps 729 mmHg 87%
    19:00 +21°C° 0.6 mm 3 mps 729 mmHg 89%
    20:00 +20°C° 0 mm 3 mps 729 mmHg 91%
    21:00 +18°C° 0 mm 2 mps 729 mmHg 93%
    22:00 +17°C° 0 mm 2 mps 729 mmHg 95%
    23:00 +17°C° 0 mm 2 mps 729 mmHg 96%

    21 July, Saturday

    Time Temperature Precipitation Wind Pressure Humidity
    00:00 +17°C° 0 mm 2 mps 729 mmHg 97%
    01:00 +16°C° 0 mm 2 mps 729 mmHg 97%
    02:00 +16°C° 0 mm 2 mps 729 mmHg 97%
    03:00 +16°C° 0 mm 2 mps 729 mmHg 98%
    04:00 +16°C° 0 mm 2 mps 730 mmHg 98%
    05:00 +16°C° 0 mm 3 mps 730 mmHg 95%
    06:00 +17°C° 0 mm 3 mps 730 mmHg 93%
    07:00 +18°C° 0 mm 3 mps 731 mmHg 91%
    08:00 +19°C° 0 mm 4 mps 731 mmHg 82%
    09:00 +21°C° 0 mm 4 mps 731 mmHg 74%
    10:00 +22°C° 0 mm 5 mps 731 mmHg 65%
    11:00 +23°C° 0 mm 5 mps 731 mmHg 61%
    12:00 +25°C° 0 mm 5 mps 731 mmHg 58%
    13:00 +25°C° 0 mm 5 mps 731 mmHg 54%
    14:00 +25°C° 0 mm 5 mps 731 mmHg 54%
    15:00 +25°C° 0 mm 5 mps 731 mmHg 54%
    16:00 +25°C° 0 mm 5 mps 731 mmHg 54%
    17:00 +22°C° 0 mm 4 mps 732 mmHg 58%
    18:00 +21°C° 0 mm 4 mps 732 mmHg 62%
    19:00 +19°C° 0 mm 4 mps 732 mmHg 67%
    20:00 +18°C° 0 mm 3 mps 732 mmHg 70%
    21:00 +16°C° 0 mm 3 mps 732 mmHg 74%
    22:00 +13°C° 0 mm 3 mps 732 mmHg 77%
    23:00 +13°C° 0 mm 3 mps 732 mmHg 79%

    22 July, Sunday

    Time Temperature Precipitation Wind Pressure Humidity
    00:00 +12°C° 0 mm 3 mps 733 mmHg 81%
    01:00 +12°C° 0 mm 3 mps 733 mmHg 82%
    02:00 +11°C° 0 mm 3 mps 733 mmHg 84%
    03:00 +10°C° 0 mm 2 mps 733 mmHg 86%
    04:00 +10°C° 0 mm 2 mps 733 mmHg 88%
    05:00 +11°C° 0 mm 3 mps 733 mmHg 80%
    06:00 +13°C° 0 mm 3 mps 734 mmHg 72%
    07:00 +15°C° 0 mm 4 mps 734 mmHg 65%
    08:00 +17°C° 0 mm 4 mps 734 mmHg 59%
    09:00 +17°C° 0 mm 5 mps 734 mmHg 53%
    10:00 +20°C° 0 mm 5 mps 735 mmHg 47%
    11:00 +20°C° 0 mm 5 mps 735 mmHg 46%
    12:00 +21°C° 0 mm 5 mps 735 mmHg 45%
    13:00 +22°C° 0 mm 5 mps 735 mmHg 44%
    14:00 +22°C° 0 mm 4 mps 734 mmHg 45%
    15:00 +22°C° 0 mm 4 mps 734 mmHg 46%
    16:00 +22°C° 0 mm 4 mps 734 mmHg 47%
    17:00 +21°C° 0 mm 3 mps 734 mmHg 54%
    18:00 +19°C° 0 mm 3 mps 734 mmHg 61%
    19:00 +18°C° 0 mm 2 mps 734 mmHg 68%
    20:00 +16°C° 0 mm 2 mps 734 mmHg 74%
    21:00 +14°C° 0 mm 2 mps 734 mmHg 80%
    22:00 +12°C° 0 mm 2 mps 734 mmHg 86%
    23:00 +12°C° 0 mm 1 mps 734 mmHg 88%
    Show more